Location: Santa Teresa Spring
(37.2333°N, 121.7000°W)
Time: 18:28:58
(UTC-07:00)

ISS - Visible Passes

Search period start: 31 July 2015 00:00
Search period end: 10 August 2015 00:00
Orbit: 401 x 403 km, 51.6° (Epoch: 31 July)

Date Brightness Start Highest point End Pass type
(mag) Time Alt. Az. Time Alt. Az. Time Alt. Az.
31 Jul -0.1 03:17:41 10° NNW 03:19:34 14° NNE 03:21:30 10° ENE visible
31 Jul -3.4 04:53:08 10° NW 04:56:25 89° SW 04:59:40 10° SE visible
31 Jul -3.4 21:30:47 10° SW 21:34:01 88° NW 21:37:18 10° NE visible
31 Jul 0.0 23:09:01 10° WNW 23:10:53 14° NNW 23:12:43 10° NNE visible
01 Aug -2.2 04:00:55 15° NW 04:03:24 44° NE 04:06:32 10° ESE visible
01 Aug -1.6 05:37:30 10° W 05:39:36 16° SW 05:41:36 10° SSW visible
01 Aug -2.9 20:38:01 10° SSW 20:41:06 41° SE 20:44:11 10° ENE visible
01 Aug -0.6 22:15:04 10° W 22:17:39 21° NNW 22:20:14 10° NNE visible
02 Aug -1.8 04:48:16 21° S 04:48:16 21° S 04:49:41 10° SSE visible
02 Aug -1.6 21:21:28 10° WSW 21:24:29 35° NW 21:27:33 10° NE visible
03 Aug -0.1 22:06:46 10° NW 22:08:22 13° NNW 22:09:55 10° N visible
04 Aug -0.4 21:12:39 10° WNW 21:15:05 19° NNW 21:17:29 10° NNE visible
06 Aug -0.1 21:04:28 10° NW 21:05:46 12° NNW 21:07:00 10° N visible
09 Aug 0.2 23:16:45 10° N 23:16:51 10° N 23:16:51 10° N visible
